Lid_Strength_Index
1 1 1 1 0 -0 -0 -1 -1 -1 -1 -1 -1 -0 -0 -0 1 4 9 5 3 -2 1 6 6 7 7 7 7 9 14 15 14 13 12 10 10 9 9 9 9 9 8 7 5
1 1 1 1 1 0 -0 -1 -1 -1 -1 -1 -0 -0 -0 -0 5 8 2 -2 -3 -1 6 8 9 8 9 8 8 12 14 14 12 12 11 10 10 10 10 10 10 9 8 9 9
1 1 1 1 1 0 -0 -0 -1 -1 -1 -1 -0 -0 -0 2 9 10 -1 -1 -2 1 6 7 7 8 10 9 9 11 13 13 11 11 10 10 11 10 10 11 9 9 10 10 10
1 1 1 1 1 0 0 -0 -1 -1 -1 -1 -0 -0 0 6 14 7 -1 -1 -2 5 6 8 8 10 11 12 10 12 11 11 9 10 10 11 10 11 10 9 10 11 10 11 11
1 1 1 1 1 1 0 -0 -0 -1 -1 -1 -0 -0 6 9 8 3 -1 -0 5 6 8 8 10 10 12 12 11 11 11 11 10 11 11 11 11 11 11 12 10 10 11 12 12
0 1 1 1 1 1 0 0 -0 -1 -1 -1 -0 0 9 10 4 2 4 6 6 7 8 9 9 9 11 11 12 12 12 11 11 11 11 12 12 11 12 11 11 11 13 13 13
-0 0 0 0 0 0 0 -0 -0 -1 -1 -1 0 3 8 7 3 3 5 7 6 7 8 8 9 10 10 12 11 12 13 12 12 12 12 12 13 13 12 11 12 13 13 14 13
1 1 1 1 0 0 0 -0 -1 -1 -1 -0 0 6 9 6 3 3 5 6 6 7 7 7 8 9 10 11 12 14 14 15 12 12 12 12 14 13 12 12 13 14 14 14 14
2 1 1 1 1 1 1 1 1 1 1 1 6 9 9 5 7 6 7 7 8 9 8 8 9 11 11 14 15 15 16 16 14 13 13 13 14 14 13 13 14 15 15 14 14
2 2 2 2 2 2 2 1 1 3 4 3 5 10 9 10 9 7 8 8 9 10 10 10 12 14 15 15 17 17 18 17 16 14 15 15 15 15 14 14 16 16 16 15 15
1 1 2 2 2 2 2 4 7 9 8 9 10 10 10 10 9 9 8 9 10 11 13 13 15 15 14 15 15 16 17 17 16 15 15 15 15 15 15 15 16 16 16 16 16
1 1 1 1 1 1 2 7 8 8 11 8 8 8 8 9 12 10 8 11 12 14 14 15 16 13 14 15 16 16 17 18 16 15 15 16 16 16 17 17 17 17 17 16 16
2 2 2 2 2 3 4 6 7 8 11 9 8 9 8 9 11 11 10 11 13 15 15 15 14 14 15 16 17 17 18 18 17 16 16 17 17 18 17 17 17 16 16 16 16
2 2 2 2 4 5 5 4 5 7 14 13 10 9 10 9 12 10 10 11 13 15 15 16 14 15 16 16 15 18 16 16 16 17 19 17 20 18 18 18 17 17 17 16 16
2 2 2 2 5 5 5 5 6 8 20 12 12 10 10 10 12 12 11 12 14 14 14 16 16 15 15 15 15 16 15 16 16 17 19 19 20 18 18 19 18 17 17 16 16
1 2 2 3 3 4 6 4 5 13 19 13 13 14 12 13 13 13 12 11 12 14 15 14 14 14 14 14 14 15 16 16 18 19 22 19 18 19 19 17 17 17 16 16 16
1 2 2 2 5 5 4 5 13 18 12 15 15 14 14 15 15 14 15 15 15 17 17 16 15 15 14 16 15 16 17 20 21 22 21 19 19 17 16 16 16 16 16 16 16
1 2 3 2 4 4 5 9 17 14 13 14 15 15 14 15 15 15 16 16 15 16 18 18 18 16 15 15 16 17 16 20 24 23 21 18 20 17 16 15 15 14 15 15 16
1 1 3 2 3 3 7 15 15 14 12 14 15 17 17 16 15 16 17 16 14 15 15 18 18 16 15 15 14 17 18 16 21 27 23 19 18 16 16 16 16 15 15 16 16
2 3 4 1 3 4 10 13 12 10 11 13 15 15 18 17 16 17 17 15 15 14 14 15 18 16 16 15 15 16 15 18 19 24 26 21 19 18 17 17 17 16 16 16 15
2 6 3 1 3 7 13 12 10 9 9 12 13 13 16 16 16 17 16 15 14 15 13 14 16 17 16 17 17 17 17 17 17 18 22 24 20 17 16 16 16 16 15 15 15
4 10 3 2 9 9 12 10 8 9 9 9 10 11 14 14 16 16 16 15 13 14 15 14 15 20 18 16 16 16 16 16 17 20 20 20 18 15 14 15 15 15 14 15 15
6 7 4 3 12 12 10 10 9 10 9 10 11 10 10 12 15 14 15 12 12 13 14 13 15 20 18 17 17 17 16 16 16 16 17 20 18 15 15 15 14 15 14 14 15
7 10 8 8 7 10 11 11 11 8 9 9 10 9 11 12 11 13 12 12 11 11 10 10 14 15 17 16 17 18 17 16 15 17 17 17 18 16 16 15 15 15 14 14 15
8 10 10 13 10 9 9 10 12 12 9 8 11 10 11 14 13 13 11 13 13 11 11 12 15 14 15 16 17 18 18 17 16 15 16 15 16 15 13 13 13 13 14 15 15
9 11 11 12 11 10 10 11 11 11 10 11 12 10 10 13 12 14 13 13 14 13 13 12 16 15 16 16 15 15 16 17 16 15 16 16 16 13 13 14 14 14 14 14 15
8 8 9 10 12 11 11 11 11 9 11 12 11 10 11 10 12 13 11 11 11 14 14 15 16 16 18 19 19 19 17 15 15 16 15 17 14 15 16 14 13 15 14 14 14